SILO ALERT LOG
| Silo ID | Alert Type | Alert Message | Silo Type | Points | Depth (mm) | Strength | Temperature (°C) | Humidity (%) | Height (mm) | Volume (㎥) | Weight (t) | Flag | Time |
|---|---|---|---|---|---|---|---|---|---|---|---|---|---|
| WJWJR01 | Humidity | 습도센서 측정값이 80% 초과 | 평 | 77 | 7710 | 1073 | 24.2 | 89.6 | -70 | -7.917 | 0 | 0 | 2026-08-25 05:26:02.000 |
| WJWJR05 | Humidity | 습도센서 측정값이 80% 초과 | 평 | 59 | 7750 | 2497 | 24.9 | 86.1 | -30 | -3.393 | 0 | 0 | 2026-08-25 05:25:44.000 |
| WJWJR01 | Humidity | 습도센서 측정값이 80% 초과 | 평 | 76 | 7640 | 1100 | 25.6 | 86.4 | 0 | 0 | 0 | 0 | 2026-08-25 01:25:57.000 |
| WJWJR05 | Humidity | 습도센서 측정값이 80% 초과 | 평 | 59 | 8210 | 2456 | 26.4 | 83.3 | -490 | -55.418 | 0 | 0 | 2026-08-25 01:25:45.000 |
| WJWJR01 | Humidity | 습도센서 측정값이 80% 초과 | 평 | 77 | 7660 | 1081 | 27 | 88.2 | -20 | -2.262 | 0 | 0 | 2026-08-24 09:25:57.000 |
| WJWJR05 | Humidity | 습도센서 측정값이 80% 초과 | 평 | 58 | 8180 | 2440 | 26.5 | 91.2 | -460 | -52.025 | 0 | 0 | 2026-08-24 09:25:41.000 |
| WJWJR01 | Humidity | 습도센서 측정값이 80% 초과 | 평 | 77 | 7650 | 1066 | 24.1 | 91.3 | -10 | -1.131 | 0 | 0 | 2026-08-24 05:26:00.000 |
| WJWJR05 | Humidity | 습도센서 측정값이 80% 초과 | 평 | 45 | 7920 | 2461 | 24.8 | 88.3 | -200 | -22.619 | 0 | 0 | 2026-08-24 05:25:43.000 |
| WJWJR01 | Humidity | 습도센서 측정값이 80% 초과 | 평 | 83 | 7680 | 1096 | 25.2 | 88.9 | -40 | -4.524 | 0 | 0 | 2026-08-24 01:26:05.000 |
| WJWJR05 | Humidity | 습도센서 측정값이 80% 초과 | 평 | 55 | 5520 | 2466 | 26 | 85.6 | 2200 | 248.814 | 157.3 | 0 | 2026-08-24 01:25:44.000 |
| WJWJR01 | Humidity | 습도센서 측정값이 80% 초과 | 평 | 77 | 7670 | 1100 | 27.5 | 82.4 | -30 | -3.393 | 0 | 0 | 2026-08-23 21:26:02.000 |
| WJWJR05 | Humidity | 습도센서 측정값이 80% 초과 | 평 | 59 | 8100 | 2477 | 28.3 | 80.8 | -379 | -42.977 | 0 | 0 | 2026-08-23 21:25:41.000 |
| WJWJR05 | Humidity | 습도센서 측정값이 80% 초과 | 평 | 59 | 7940 | 2471 | 30.5 | 87.1 | -220 | -24.881 | 0 | 0 | 2026-08-23 13:25:44.000 |
| WJWJR01 | Humidity | 습도센서 측정값이 80% 초과 | 평 | 75 | 7670 | 1080 | 23.8 | 93.5 | -30 | -3.393 | 0 | 0 | 2026-08-23 09:26:02.000 |
| WJWJR05 | Humidity | 습도센서 측정값이 80% 초과 | 평 | 50 | 7960 | 2444 | 24 | 91.3 | -240 | -27.143 | 0 | 0 | 2026-08-23 09:25:46.000 |
| WJWJR05 | Humidity | 습도센서 측정값이 80% 초과 | 평 | 59 | 7730 | 2406 | 23.4 | 90.8 | -10 | -1.131 | 0 | 0 | 2026-08-23 05:28:20.000 |
| WJWJR01 | Humidity | 습도센서 측정값이 80% 초과 | 평 | 77 | 7670 | 1088 | 22.8 | 93.7 | -30 | -3.393 | 0 | 0 | 2026-08-23 05:28:20.000 |
| WJWJR01 | Humidity | 습도센서 측정값이 80% 초과 | 평 | 77 | 7670 | 1088 | 22.8 | 93.7 | -30 | -3.393 | 0 | 0 | 2026-08-23 05:28:20.000 |
| WJWJR01 | Humidity | 습도센서 측정값이 80% 초과 | 평 | 77 | 7670 | 1088 | 22.8 | 93.7 | -30 | -3.393 | 0 | 0 | 2026-08-23 05:28:20.000 |
| WJWJR01 | Humidity | 습도센서 측정값이 80% 초과 | 평 | 77 | 7670 | 1088 | 22.8 | 93.7 | -30 | -3.393 | 0 | 0 | 2026-08-23 05:28:20.000 |
[첫 페이지] [2] [3] [4] [5] 6 [7] [8] [9] [10] [마지막 페이지]